Weather in Kara-Pago

Russia / Karachay-Cherkess Republic     44°07′57″N   41°56′39″E
temp.,
°C
wind,
m/s
gust,
m/s
humid.,
%
clouds,
%
prec.,
mm/h
press.,
hPa
HPBL,
m
6 march, sat
sat600:00+1s34590 0.0 102045
03:00+1ssw445211 0.0 102055
06:00−1ssw346011 0.0 101941
09:00+3ssw34746 0.0 101766
12:00+8ssw248734 0.0 1015141
15:00+9n228448 0.0 1013143
18:00+5sse127992 0.0 101422
21:00+3ssw346596 0.0 101560
7 march, sun
sun700:00+1nw71292100 0.0 1017416
03:00−2nw61096100 1.3 1020709
06:00−4nw5796100 3.8 1023541
09:00−4nw3592100 5.6 1025478
12:00−3n226976 0.1 1024729
15:00−2n215944 0.1 1023715
18:00−5n12720 0.0 102321
21:00−6ssw11770 0.0 102421
8 march, mon
mon800:00−6wsw11810 0.0 102421
03:00−6sw11820 0.0 102321
06:00−6s128116 0.0 102122
09:00−3sse116518 0.0 1021293
12:00−1nne226457 0.0 1018729
15:000nne116330 0.0 1017741
18:00−2nnw227589 0.0 101823
21:00−2sw117995 0.0 101922
9 march, tue
tue900:00−3s128156 0.0 101922
03:00−3sw018028 0.0 101922
06:00−3s118032 0.0 101922
09:00−1se116966 0.0 1018281
12:00+2e225915 0.0 1017606
15:00+3n12548 0.0 10161121
18:000nw117035 0.0 101721
21:000sw127463 0.0 101923
10 march, wed
wed1000:00−2nw118993 0.0 102032
03:00−2wnw479596 0.6 1021541
06:00−3nnw3594100 0.6 1022391
09:00−3nnw3486100 1.0 1022457
12:00−1n3378100 0.3 1022649
15:00−1ne3374100 0.4 1021636
18:00−2ene4693100 0.2 1021423
21:00−3e5986100 0.4 1021713